カタリナ彗星

459P/Catalina (2004)

English version
Home page
Updated on April 22, 2023

---------------------------------------------------------------------

・ プロフィール

・ 軌道要素

                    Epoch = 2004 Aug. 23.0 TT
     T = 2004 Aug. 11.56203 TT        Peri. = 186.18458
     e = 0.4905687                    Node  = 274.48917 2000.0
     q = 1.7546140 AU                 Incl. =  13.88222
       a =  3.4442604 AU   n = 0.15419138   P =   6.39 years

・ 光度変化

        H = 16.0  G = 0.15

---------------------------------------------------------------------

軌道要素は、CBET 5241に掲載されたものです。
光度グラフはComet for Windowsで作成したものです。

---------------------------------------------------------------------

Copyright(C) Seiichi Yoshida (comet@aerith.net). All rights reserved.